Time,TemperatureF,DewpointF,PressureIn,WindDirection,WindDirectionDegrees,WindSpeedMPH,WindSpeedGustMPH,Humidity,HourlyPrecipIn,Conditions,Clouds,dailyrainin,SoftwareType,DateUTC
2013-08-05 00:00:00,69.2,63.5,30.03,N/A,-737280,0.0,0.0,82,0.00,,,0.00,Wunderground v.1.13,2013-08-05 04:00:00,
2013-08-05 00:10:00,69.2,63.5,30.03,N/A,-737280,0.0,0.0,82,0.00,,,0.00,Wunderground v.1.13,2013-08-05 04:10:00,
2013-08-05 00:20:00,69.2,63.5,30.03,N/A,-737280,0.0,0.0,82,0.00,,,0.00,Wunderground v.1.13,2013-08-05 04:20:00,
2013-08-05 00:30:00,69.2,63.5,30.03,N/A,-737280,0.0,0.0,82,0.00,,,0.00,Wunderground v.1.13,2013-08-05 04:30:00,
2013-08-05 00:40:00,69.2,63.5,30.03,N/A,-737280,0.0,0.0,82,0.00,,,0.00,Wunderground v.1.13,2013-08-05 04:40:00,
2013-08-05 00:50:00,68.5,62.4,30.02,N/A,-737280,0.0,0.0,81,0.00,,,0.00,Wunderground v.1.13,2013-08-05 04:50:00,
2013-08-05 01:00:00,68.5,62.4,30.02,N/A,-737280,0.0,0.0,81,0.00,,,0.00,Wunderground v.1.13,2013-08-05 05:00:00,
2013-08-05 01:10:00,68.5,62.4,30.02,N/A,-737280,0.0,0.0,81,0.00,,,0.00,Wunderground v.1.13,2013-08-05 05:10:00,
2013-08-05 01:20:00,67.8,62.8,30.02,N/A,-737280,0.0,0.0,84,0.00,,,0.00,Wunderground v.1.13,2013-08-05 05:20:00,
2013-08-05 01:30:00,67.8,62.8,30.02,N/A,-737280,0.0,0.0,84,0.00,,,0.00,Wunderground v.1.13,2013-08-05 05:30:00,
2013-08-05 01:40:00,67.8,62.8,30.02,N/A,-737280,0.0,0.0,84,0.00,,,0.00,Wunderground v.1.13,2013-08-05 05:40:00,
2013-08-05 01:50:00,67.5,63.2,30.02,N/A,-737280,0.0,0.0,86,0.00,,,0.00,Wunderground v.1.13,2013-08-05 05:50:00,
2013-08-05 02:00:00,67.5,63.2,30.02,N/A,-737280,0.0,0.0,86,0.00,,,0.00,Wunderground v.1.13,2013-08-05 06:00:00,
2013-08-05 02:10:00,67.5,63.2,30.02,N/A,-737280,0.0,0.0,86,0.00,,,0.00,Wunderground v.1.13,2013-08-05 06:10:00,
2013-08-05 02:20:00,67.0,63.3,30.01,N/A,-737280,0.0,0.0,88,0.00,,,0.00,Wunderground v.1.13,2013-08-05 06:20:00,
2013-08-05 02:30:00,67.0,63.3,30.01,N/A,-737280,0.0,0.0,88,0.00,,,0.00,Wunderground v.1.13,2013-08-05 06:30:00,
2013-08-05 02:40:00,67.0,63.3,30.01,N/A,-737280,0.0,0.0,88,0.00,,,0.00,Wunderground v.1.13,2013-08-05 06:40:00,
2013-08-05 02:50:00,66.5,63.5,30.00,N/A,-737280,0.0,0.0,90,0.00,,,0.00,Wunderground v.1.13,2013-08-05 06:50:00,
2013-08-05 03:00:00,66.5,63.5,30.00,N/A,-737280,0.0,0.0,90,0.00,,,0.00,Wunderground v.1.13,2013-08-05 07:00:00,
2013-08-05 03:10:00,66.5,63.5,30.00,N/A,-737280,0.0,0.0,90,0.00,,,0.00,Wunderground v.1.13,2013-08-05 07:10:00,
2013-08-05 03:20:00,65.9,63.5,30.00,N/A,-737280,0.0,0.0,92,0.00,,,0.00,Wunderground v.1.13,2013-08-05 07:20:00,
2013-08-05 03:30:00,65.9,63.5,30.00,N/A,-737280,0.0,0.0,92,0.00,,,0.00,Wunderground v.1.13,2013-08-05 07:30:00,
2013-08-05 03:40:00,65.9,63.5,30.00,N/A,-737280,0.0,0.0,92,0.00,,,0.00,Wunderground v.1.13,2013-08-05 07:40:00,
2013-08-05 03:50:00,65.5,63.7,30.00,N/A,-737280,0.0,0.0,94,0.00,,,0.00,Wunderground v.1.13,2013-08-05 07:50:00,
2013-08-05 04:00:00,65.5,63.7,30.00,N/A,-737280,0.0,0.0,94,0.00,,,0.00,Wunderground v.1.13,2013-08-05 08:00:00,
2013-08-05 04:10:00,65.5,63.7,30.00,N/A,-737280,0.0,0.0,94,0.00,,,0.00,Wunderground v.1.13,2013-08-05 08:10:00,
2013-08-05 04:20:00,65.1,63.6,29.99,N/A,-737280,0.0,0.0,95,0.00,,,0.00,Wunderground v.1.13,2013-08-05 08:20:00,
2013-08-05 04:30:00,65.1,63.6,29.99,N/A,-737280,0.0,0.0,95,0.00,,,0.00,Wunderground v.1.13,2013-08-05 08:30:00,
2013-08-05 04:40:00,65.1,63.6,29.99,N/A,-737280,0.0,0.0,95,0.00,,,0.00,Wunderground v.1.13,2013-08-05 08:40:00,
2013-08-05 04:50:00,64.7,63.2,29.99,N/A,-737280,0.0,0.0,95,0.00,,,0.00,Wunderground v.1.13,2013-08-05 08:50:00,
2013-08-05 05:00:00,64.7,63.2,29.99,N/A,-737280,0.0,0.0,95,0.00,,,0.00,Wunderground v.1.13,2013-08-05 09:00:00,
2013-08-05 05:10:00,64.7,63.2,29.99,N/A,-737280,0.0,0.0,95,0.00,,,0.00,Wunderground v.1.13,2013-08-05 09:10:00,
2013-08-05 05:20:00,64.1,62.9,30.00,N/A,-737280,0.0,0.0,96,0.00,,,0.00,Wunderground v.1.13,2013-08-05 09:20:00,
2013-08-05 05:30:00,64.1,62.9,30.00,N/A,-737280,0.0,0.0,96,0.00,,,0.00,Wunderground v.1.13,2013-08-05 09:30:00,
2013-08-05 05:40:00,64.1,62.9,30.00,N/A,-737280,0.0,0.0,96,0.00,,,0.00,Wunderground v.1.13,2013-08-05 09:40:00,
2013-08-05 05:50:00,63.8,62.9,30.01,N/A,-737280,0.0,0.0,97,0.00,,,0.00,Wunderground v.1.13,2013-08-05 09:50:00,
2013-08-05 06:00:00,63.8,62.9,30.01,N/A,-737280,0.0,0.0,97,0.00,,,0.00,Wunderground v.1.13,2013-08-05 10:00:00,
2013-08-05 06:10:00,63.8,62.9,30.01,N/A,-737280,0.0,0.0,97,0.00,,,0.00,Wunderground v.1.13,2013-08-05 10:10:00,
2013-08-05 06:30:00,63.4,62.5,30.01,N/A,-737280,0.0,0.0,97,0.00,,,0.00,Wunderground v.1.13,2013-08-05 10:30:00,
2013-08-05 06:40:00,63.4,62.5,30.01,N/A,-737280,0.0,0.0,97,0.00,,,0.00,Wunderground v.1.13,2013-08-05 10:40:00,
2013-08-05 06:50:00,63.1,62.5,30.02,N/A,-737280,0.0,0.0,98,0.00,,,0.00,Wunderground v.1.13,2013-08-05 10:50:00,
2013-08-05 07:00:00,63.1,62.5,30.02,N/A,-737280,0.0,0.0,98,0.00,,,0.00,Wunderground v.1.13,2013-08-05 11:00:00,
2013-08-05 07:10:00,63.1,62.5,30.02,N/A,-737280,0.0,0.0,98,0.00,,,0.00,Wunderground v.1.13,2013-08-05 11:10:00,
2013-08-05 07:20:00,63.4,63.1,30.03,N/A,-737280,0.0,0.0,99,0.00,,,0.00,Wunderground v.1.13,2013-08-05 11:20:00,
2013-08-05 07:30:00,63.4,63.1,30.03,N/A,-737280,0.0,0.0,99,0.00,,,0.00,Wunderground v.1.13,2013-08-05 11:30:00,
2013-08-05 07:40:00,63.4,63.1,30.03,N/A,-737280,0.0,0.0,99,0.00,,,0.00,Wunderground v.1.13,2013-08-05 11:40:00,
2013-08-05 07:50:00,64.2,64.2,30.03,N/A,-737280,0.0,0.0,100,0.00,,,0.00,Wunderground v.1.13,2013-08-05 11:50:00,
2013-08-05 08:00:00,64.2,64.2,30.03,N/A,-737280,0.0,0.0,100,0.00,,,0.00,Wunderground v.1.13,2013-08-05 12:00:00,
2013-08-05 08:10:00,64.2,64.2,30.03,N/A,-737280,0.0,0.0,100,0.00,,,0.00,Wunderground v.1.13,2013-08-05 12:10:00,
2013-08-05 08:20:00,65.4,65.4,30.03,N/A,-737280,0.0,0.0,100,0.00,,,0.00,Wunderground v.1.13,2013-08-05 12:20:00,
2013-08-05 08:30:00,65.4,65.4,30.03,N/A,-737280,0.0,0.0,100,0.00,,,0.00,Wunderground v.1.13,2013-08-05 12:30:00,
2013-08-05 08:40:00,65.4,65.4,30.03,N/A,-737280,0.0,0.0,100,0.00,,,0.00,Wunderground v.1.13,2013-08-05 12:40:00,
2013-08-05 08:50:00,66.7,66.4,30.03,N/A,-737280,0.0,0.0,99,0.00,,,0.00,Wunderground v.1.13,2013-08-05 12:50:00,
2013-08-05 09:00:00,66.7,66.4,30.03,N/A,-737280,0.0,0.0,99,0.00,,,0.00,Wunderground v.1.13,2013-08-05 13:00:00,
2013-08-05 09:10:00,66.7,66.4,30.03,N/A,-737280,0.0,0.0,99,0.00,,,0.00,Wunderground v.1.13,2013-08-05 13:10:00,
2013-08-05 09:20:00,68.8,65.1,30.03,N/A,-737280,0.0,0.0,88,0.00,,,0.00,Wunderground v.1.13,2013-08-05 13:20:00,
2013-08-05 09:30:00,68.8,65.1,30.03,N/A,-737280,0.0,0.0,88,0.00,,,0.00,Wunderground v.1.13,2013-08-05 13:30:00,
2013-08-05 09:40:00,68.8,65.1,30.03,N/A,-737280,0.0,0.0,88,0.00,,,0.00,Wunderground v.1.13,2013-08-05 13:40:00,
2013-08-05 09:50:00,70.7,64.2,30.03,ESE,113,0.0,1.0,80,0.00,,,0.00,Wunderground v.1.13,2013-08-05 13:50:00,
2013-08-05 10:00:00,70.7,64.2,30.03,ESE,113,0.0,1.0,80,0.00,,,0.00,Wunderground v.1.13,2013-08-05 14:00:00,
2013-08-05 10:10:00,70.7,64.2,30.03,ESE,113,0.0,1.0,80,0.00,,,0.00,Wunderground v.1.13,2013-08-05 14:10:00,
2013-08-05 10:20:00,73.6,63.6,30.03,ESE,113,0.0,2.0,71,0.00,,,0.00,Wunderground v.1.13,2013-08-05 14:20:00,
2013-08-05 10:30:00,73.6,63.6,30.03,ESE,113,0.0,2.0,71,0.00,,,0.00,Wunderground v.1.13,2013-08-05 14:30:00,
2013-08-05 10:40:00,73.6,63.6,30.03,ESE,113,0.0,2.0,71,0.00,,,0.00,Wunderground v.1.13,2013-08-05 14:40:00,
2013-08-05 10:50:00,76.4,65.9,30.02,ENE,68,0.0,2.0,70,0.00,,,0.00,Wunderground v.1.13,2013-08-05 14:50:00,
2013-08-05 11:00:00,76.4,65.9,30.02,ENE,68,0.0,2.0,70,0.00,,,0.00,Wunderground v.1.13,2013-08-05 15:00:00,
2013-08-05 11:10:00,76.4,65.9,30.02,ENE,68,0.0,2.0,70,0.00,,,0.00,Wunderground v.1.13,2013-08-05 15:10:00,
2013-08-05 11:20:00,78.0,64.4,30.00,ENE,68,0.0,1.0,63,0.00,,,0.00,Wunderground v.1.13,2013-08-05 15:20:00,
2013-08-05 11:30:00,78.0,64.4,30.00,ENE,68,0.0,1.0,63,0.00,,,0.00,Wunderground v.1.13,2013-08-05 15:30:00,
2013-08-05 11:40:00,78.0,64.4,30.00,ENE,68,0.0,1.0,63,0.00,,,0.00,Wunderground v.1.13,2013-08-05 15:40:00,
2013-08-05 11:50:00,80.2,65.5,29.99,SSW,203,0.0,3.0,61,0.00,,,0.00,Wunderground v.1.13,2013-08-05 15:50:00,
2013-08-05 12:00:00,80.2,65.5,29.99,SSW,203,0.0,3.0,61,0.00,,,0.00,Wunderground v.1.13,2013-08-05 16:00:00,
2013-08-05 12:10:00,80.2,65.5,29.99,SSW,203,0.0,3.0,61,0.00,,,0.00,Wunderground v.1.13,2013-08-05 16:10:00,
2013-08-05 12:20:00,81.1,66.4,29.98,SSW,203,0.0,3.0,61,0.00,,,0.00,Wunderground v.1.13,2013-08-05 16:20:00,
2013-08-05 12:30:00,81.1,66.4,29.98,SSW,203,0.0,3.0,61,0.00,,,0.00,Wunderground v.1.13,2013-08-05 16:30:00,
2013-08-05 12:40:00,81.1,66.4,29.98,SSW,203,0.0,3.0,61,0.00,,,0.00,Wunderground v.1.13,2013-08-05 16:40:00,
2013-08-05 12:50:00,83.9,64.4,29.97,South,180,0.0,2.0,52,0.00,,,0.00,Wunderground v.1.13,2013-08-05 16:50:00,
2013-08-05 13:00:00,83.9,64.4,29.97,South,180,0.0,2.0,52,0.00,,,0.00,Wunderground v.1.13,2013-08-05 17:00:00,
2013-08-05 13:10:00,83.9,64.4,29.97,South,180,0.0,2.0,52,0.00,,,0.00,Wunderground v.1.13,2013-08-05 17:10:00,
2013-08-05 13:20:00,84.0,67.6,29.97,South,180,0.0,3.0,58,0.00,,,0.00,Wunderground v.1.13,2013-08-05 17:20:00,
2013-08-05 13:30:00,84.0,67.6,29.97,South,180,0.0,3.0,58,0.00,,,0.00,Wunderground v.1.13,2013-08-05 17:30:00,
2013-08-05 13:40:00,84.0,67.6,29.97,South,180,0.0,3.0,58,0.00,,,0.00,Wunderground v.1.13,2013-08-05 17:40:00,
2013-08-05 13:50:00,85.0,62.5,29.96,WNW,293,0.0,5.0,47,0.00,,,0.00,Wunderground v.1.13,2013-08-05 17:50:00,
2013-08-05 14:00:00,85.0,62.5,29.96,WNW,293,0.0,5.0,47,0.00,,,0.00,Wunderground v.1.13,2013-08-05 18:00:00,
2013-08-05 14:10:00,85.0,62.5,29.96,WNW,293,0.0,5.0,47,0.00,,,0.00,Wunderground v.1.13,2013-08-05 18:10:00,
2013-08-05 14:20:00,87.3,64.0,29.95,WNW,293,0.0,3.0,46,0.00,,,0.00,Wunderground v.1.13,2013-08-05 18:20:00,
2013-08-05 14:30:00,87.3,64.0,29.95,WNW,293,0.0,3.0,46,0.00,,,0.00,Wunderground v.1.13,2013-08-05 18:30:00,
2013-08-05 14:40:00,87.3,64.0,29.95,WNW,293,0.0,3.0,46,0.00,,,0.00,Wunderground v.1.13,2013-08-05 18:40:00,
2013-08-05 14:50:00,87.5,62.2,29.95,SSW,203,0.0,4.0,43,0.00,,,0.00,Wunderground v.1.13,2013-08-05 18:50:00,
2013-08-05 15:00:00,87.5,62.2,29.95,SSW,203,0.0,4.0,43,0.00,,,0.00,Wunderground v.1.13,2013-08-05 19:00:00,
2013-08-05 15:10:00,87.5,62.2,29.95,SSW,203,0.0,4.0,43,0.00,,,0.00,Wunderground v.1.13,2013-08-05 19:10:00,
2013-08-05 15:20:00,88.3,56.4,29.94,SW,225,0.0,5.0,34,0.00,,,0.00,Wunderground v.1.13,2013-08-05 19:20:00,
2013-08-05 15:30:00,88.3,56.4,29.94,SW,225,0.0,5.0,34,0.00,,,0.00,Wunderground v.1.13,2013-08-05 19:30:00,
2013-08-05 15:40:00,88.3,56.4,29.94,SW,225,0.0,5.0,34,0.00,,,0.00,Wunderground v.1.13,2013-08-05 19:40:00,
2013-08-05 15:50:00,89.4,57.3,29.94,WNW,293,0.0,3.0,34,0.00,,,0.00,Wunderground v.1.13,2013-08-05 19:50:00,
2013-08-05 16:00:00,89.4,57.3,29.94,WNW,293,0.0,3.0,34,0.00,,,0.00,Wunderground v.1.13,2013-08-05 20:00:00,
2013-08-05 16:10:00,89.4,57.3,29.94,WNW,293,0.0,3.0,34,0.00,,,0.00,Wunderground v.1.13,2013-08-05 20:10:00,
2013-08-05 16:20:00,87.5,58.8,29.93,WNW,293,0.0,3.0,38,0.00,,,0.00,Wunderground v.1.13,2013-08-05 20:20:00,
2013-08-05 16:30:00,87.5,58.8,29.93,WNW,293,0.0,3.0,38,0.00,,,0.00,Wunderground v.1.13,2013-08-05 20:30:00,
2013-08-05 16:40:00,87.5,58.8,29.93,WNW,293,0.0,3.0,38,0.00,,,0.00,Wunderground v.1.13,2013-08-05 20:40:00,
2013-08-05 16:50:00,86.0,57.4,29.93,SW,225,0.0,4.0,38,0.00,,,0.00,Wunderground v.1.13,2013-08-05 20:50:00,
2013-08-05 17:00:00,86.0,57.4,29.93,SW,225,0.0,4.0,38,0.00,,,0.00,Wunderground v.1.13,2013-08-05 21:00:00,
2013-08-05 17:10:00,86.0,57.4,29.93,SW,225,0.0,4.0,38,0.00,,,0.00,Wunderground v.1.13,2013-08-05 21:10:00,
2013-08-05 17:20:00,84.8,59.8,29.94,SSW,203,0.0,5.0,43,0.00,,,0.00,Wunderground v.1.13,2013-08-05 21:20:00,
2013-08-05 17:30:00,84.8,59.8,29.94,SSW,203,0.0,5.0,43,0.00,,,0.00,Wunderground v.1.13,2013-08-05 21:30:00,
2013-08-05 17:40:00,84.8,59.8,29.94,SSW,203,0.0,5.0,43,0.00,,,0.00,Wunderground v.1.13,2013-08-05 21:40:00,
2013-08-05 17:50:00,82.1,58.0,29.93,WSW,248,0.0,1.0,44,0.00,,,0.00,Wunderground v.1.13,2013-08-05 21:50:00,
2013-08-05 18:00:00,82.1,58.0,29.93,WSW,248,0.0,1.0,44,0.00,,,0.00,Wunderground v.1.13,2013-08-05 22:00:00,
2013-08-05 18:10:00,82.1,58.0,29.93,WSW,248,0.0,1.0,44,0.00,,,0.00,Wunderground v.1.13,2013-08-05 22:10:00,
2013-08-05 18:20:00,80.8,61.0,29.94,SW,225,0.0,1.0,51,0.00,,,0.00,Wunderground v.1.13,2013-08-05 22:20:00,
2013-08-05 18:30:00,80.8,61.0,29.94,SW,225,0.0,1.0,51,0.00,,,0.00,Wunderground v.1.13,2013-08-05 22:30:00,
2013-08-05 18:40:00,80.8,61.0,29.94,SW,225,0.0,1.0,51,0.00,,,0.00,Wunderground v.1.13,2013-08-05 22:40:00,
2013-08-05 18:50:00,78.0,63.5,29.95,N/A,-737280,0.0,0.0,61,0.00,,,0.00,Wunderground v.1.13,2013-08-05 22:50:00,
2013-08-05 19:00:00,78.0,63.5,29.95,N/A,-737280,0.0,0.0,61,0.00,,,0.00,Wunderground v.1.13,2013-08-05 23:00:00,
2013-08-05 19:10:00,78.0,63.5,29.95,N/A,-737280,0.0,0.0,61,0.00,,,0.00,Wunderground v.1.13,2013-08-05 23:10:00,
2013-08-05 19:20:00,76.9,63.3,29.95,N/A,-737280,0.0,0.0,63,0.00,,,0.00,Wunderground v.1.13,2013-08-05 23:20:00,
2013-08-05 19:30:00,76.9,63.3,29.95,N/A,-737280,0.0,0.0,63,0.00,,,0.00,Wunderground v.1.13,2013-08-05 23:30:00,
2013-08-05 19:40:00,76.9,63.3,29.95,N/A,-737280,0.0,0.0,63,0.00,,,0.00,Wunderground v.1.13,2013-08-05 23:40:00,
2013-08-05 19:50:00,75.3,63.2,29.95,N/A,-737280,0.0,0.0,66,0.00,,,0.00,Wunderground v.1.13,2013-08-05 23:50:00,
2013-08-05 20:00:00,75.3,63.2,29.95,N/A,-737280,0.0,0.0,66,0.00,,,0.00,Wunderground v.1.13,2013-08-06 00:00:00,
2013-08-05 20:10:00,75.3,63.2,29.95,N/A,-737280,0.0,0.0,66,0.00,,,0.00,Wunderground v.1.13,2013-08-06 00:10:00,
2013-08-05 20:20:00,73.4,63.4,29.95,N/A,-737280,0.0,0.0,71,0.00,,,0.00,Wunderground v.1.13,2013-08-06 00:20:00,
2013-08-05 20:30:00,73.4,63.4,29.95,N/A,-737280,0.0,0.0,71,0.00,,,0.00,Wunderground v.1.13,2013-08-06 00:30:00,
2013-08-05 20:40:00,73.4,63.4,29.95,N/A,-737280,0.0,0.0,71,0.00,,,0.00,Wunderground v.1.13,2013-08-06 00:40:00,
2013-08-05 20:50:00,72.0,62.9,29.95,N/A,-737280,0.0,0.0,73,0.00,,,0.00,Wunderground v.1.13,2013-08-06 00:50:00,
2013-08-05 21:00:00,72.0,62.9,29.95,N/A,-737280,0.0,0.0,73,0.00,,,0.00,Wunderground v.1.13,2013-08-06 01:00:00,
2013-08-05 21:10:00,72.0,62.9,29.95,N/A,-737280,0.0,0.0,73,0.00,,,0.00,Wunderground v.1.13,2013-08-06 01:10:00,
2013-08-05 21:20:00,71.4,64.5,29.95,N/A,-737280,0.0,0.0,79,0.00,,,0.00,Wunderground v.1.13,2013-08-06 01:20:00,
2013-08-05 21:30:00,71.4,64.5,29.95,N/A,-737280,0.0,0.0,79,0.00,,,0.00,Wunderground v.1.13,2013-08-06 01:30:00,
2013-08-05 21:40:00,71.4,64.5,29.95,N/A,-737280,0.0,0.0,79,0.00,,,0.00,Wunderground v.1.13,2013-08-06 01:40:00,
2013-08-05 21:50:00,70.7,63.5,29.93,N/A,-737280,0.0,0.0,78,0.00,,,0.00,Wunderground v.1.13,2013-08-06 01:50:00,
2013-08-05 22:00:00,70.7,63.5,29.93,N/A,-737280,0.0,0.0,78,0.00,,,0.00,Wunderground v.1.13,2013-08-06 02:00:00,
2013-08-05 22:10:00,70.7,63.5,29.93,N/A,-737280,0.0,0.0,78,0.00,,,0.00,Wunderground v.1.13,2013-08-06 02:10:00,
2013-08-05 22:20:00,70.0,63.9,29.93,N/A,-737280,0.0,0.0,81,0.00,,,0.00,Wunderground v.1.13,2013-08-06 02:20:00,
2013-08-05 22:30:00,70.0,63.9,29.93,N/A,-737280,0.0,0.0,81,0.00,,,0.00,Wunderground v.1.13,2013-08-06 02:30:00,
2013-08-05 22:40:00,70.0,63.9,29.93,N/A,-737280,0.0,0.0,81,0.00,,,0.00,Wunderground v.1.13,2013-08-06 02:40:00,
2013-08-05 22:50:00,69.7,64.6,29.93,N/A,-737280,0.0,0.0,84,0.00,,,0.00,Wunderground v.1.13,2013-08-06 02:50:00,
2013-08-05 23:00:00,69.7,64.6,29.93,N/A,-737280,0.0,0.0,84,0.00,,,0.00,Wunderground v.1.13,2013-08-06 03:00:00,
2013-08-05 23:10:00,69.7,64.6,29.93,N/A,-737280,0.0,0.0,84,0.00,,,0.00,Wunderground v.1.13,2013-08-06 03:10:00,
2013-08-05 23:20:00,69.2,64.5,29.93,N/A,-737280,0.0,0.0,85,0.00,,,0.00,Wunderground v.1.13,2013-08-06 03:20:00,
2013-08-05 23:30:00,69.2,64.5,29.93,N/A,-737280,0.0,0.0,85,0.00,,,0.00,Wunderground v.1.13,2013-08-06 03:30:00,
2013-08-05 23:40:00,69.2,64.5,29.93,N/A,-737280,0.0,0.0,85,0.00,,,0.00,Wunderground v.1.13,2013-08-06 03:40:00,
2013-08-05 23:50:00,69.0,64.0,29.93,N/A,-737280,0.0,0.0,84,0.00,,,0.00,Wunderground v.1.13,2013-08-06 03:50:00,